Weather History for Capri, Italy

Change the Weather History Date:

Monday, October 15, 2012

  Actual Average Record
Temperature  
Mean Temperature 68 °F -  
Max Temperature 72 °F - - ()
Min Temperature 64 °F - - ()
Cooling Degree Days 3    
Growing Degree Days 18 (Base 50)    
Moisture  
Dew Point 66 °F    
Average Humidity 91    
Maximum Humidity 100    
Minimum Humidity 83    
Precipitation  
Precipitation 0.00 in - - ()
Sea Level Pressure  
Sea Level Pressure 29.77 in    
Wind  
Wind Speed 5 mph ()    
Max Wind Speed 9 mph    
Max Gust Speed 17 mph    
Visibility 5.8 miles    
Events Rain    
T = Trace of Precipitation, MM = Missing Value Source: Averaged Metar Reports

Daily Weather History Graph

Daily Weather History Graph

Search for Another Location

Airport:

Trip Planner

Search our weather history database for the weather conditions in past years. The results will help you decide how hot, cold, wet, or windy it might be!

Date:

Astronomy

Oct. 15, 2012 Rise Set
Actual Time 7:14 AM CEST 6:22 PM CEST
Civil Twilight 6:46 AM CEST 6:50 PM CEST
Nautical Twilight 6:15 AM CEST 7:21 PM CEST
Astronomical Twilight 5:43 AM CEST 7:53 PM CEST
Moon 7:04 AM CEST (10/15) 6:10 PM CEST (10/15)
Length of Visible Light 12h 03m
Length of Day
11h 08m
Waning Crescent, 0% of the Moon is Illuminated
Oct 15
Waning Crescent
Oct 15
New
Oct 22
First Quarter
Oct 29
Full
Nov 7
Last Quarter

Hourly Weather History & Observations

Time (CEST) Temp. Dew Point Humidity Pressure Visibility Wind Dir Wind Speed Gust Speed Precip Events Conditions
12:55 AM 64.4 °F 62.6 °F 94% 29.83 in - North - - N/A   Mostly Cloudy
1:55 AM 66.2 °F 62.6 °F 88% 29.80 in - North - - N/A   Mostly Cloudy
2:00 AM 66 °F 63 °F 87% 29.81 in 6 mi Calm Calm - -  
5:00 AM 66 °F 63 °F 87% 29.79 in 6 mi West 9.2 mph - -   Mostly Cloudy
5:55 AM 68.0 °F 64.4 °F 88% 29.80 in - North - - N/A   Mostly Cloudy
7:55 AM 69.8 °F 64.4 °F 83% 29.77 in - North - - N/A   Scattered Clouds
8:55 AM 69.8 °F 66.2 °F 88% 29.77 in - North - - N/A   Scattered Clouds
9:55 AM 69.8 °F 66.2 °F 88% 29.77 in 6.2 mi WSW 9.2 mph - N/A   Mostly Cloudy
10:55 AM 71.6 °F 68.0 °F 88% 29.77 in 6.2 mi WSW 8.1 mph - N/A   Mostly Cloudy
11:00 AM 71 °F 68 °F 87% 29.78 in 6 mi WSW 8.1 mph - -   Mostly Cloudy
11:55 AM 71.6 °F 69.8 °F 94% 29.77 in 6.2 mi WSW 5.8 mph - N/A   Mostly Cloudy
12:55 PM 71.6 °F 69.8 °F 94% 29.77 in 6.2 mi WSW 4.6 mph - N/A   Scattered Clouds
1:55 PM 71.6 °F 69.8 °F 94% 29.77 in 6.2 mi South 5.8 mph - N/A   Mostly Cloudy
2:00 PM 72 °F 70 °F 91% 29.77 in 6 mi South 5.8 mph - -  
2:55 PM 71.6 °F 69.8 °F 94% 29.77 in 6.2 mi East 3.5 mph - N/A   Partly Cloudy
3:55 PM 71.6 °F 69.8 °F 94% 29.77 in 6.2 mi WSW 5.8 mph 17.3 mph N/A   Partly Cloudy
4:55 PM 71.6 °F 68.0 °F 88% 29.77 in 6.2 mi SSW 6.9 mph - N/A   Partly Cloudy
5:55 PM 68.0 °F 68.0 °F 100% 29.77 in 5.0 mi East 5.8 mph 17.3 mph N/A Rain Light Rain
6:55 PM 66.2 °F 64.4 °F 94% 29.74 in 5.0 mi NNW 4.6 mph - N/A   Scattered Clouds
7:55 PM 64.4 °F 64.4 °F 100% 29.74 in 5.0 mi South 5.8 mph - N/A Rain Light Rain
8:00 PM 65 °F 64 °F 94% 29.76 in 2 mi South 5.8 mph - -   Overcast
8:55 PM 68.0 °F 64.4 °F 88% 29.77 in 6.2 mi South 9.2 mph - N/A   Scattered Clouds
9:55 PM 66.2 °F 64.4 °F 94% 29.74 in 6.2 mi South 5.8 mph - N/A   Scattered Clouds
10:55 PM 68.0 °F 66.2 °F 94% 29.74 in 6.2 mi South 4.6 mph 16.1 mph N/A   Mostly Cloudy
11:00 PM 68 °F 65 °F 88% 29.75 in 6 mi South 4.6 mph - -   Partly Cloudy
11:55 PM 68.0 °F 66.2 °F 94% 29.74 in 6.2 mi SSW 4.6 mph - N/A   Scattered Clouds